Flag for Germany Weather past 2 weeks in Bremerhaven, Bremen, Germany

Now
68 °F

Scattered clouds.


Feels Like: 68 °F
Forecast: 61 / 70 °F
Wind: 14 mph from Northwest

Location: Nordholz

Current Time: Jul 30, 2014 at 9:47:05 PM

Latest Report: Jul 30, 2014 at 8:20 PM


Visibility: N/A

Pressure: 29.89 "Hg

Humidity: 69%

Dew point: 57 °F

Location of BremerhavenLocation

Historic Weather in Bremerhaven — Graph

°F

Bremerhaven temperature yesterday

Maximum temperature yesterday: 81 °F (at 1:20 PM)
Minimum temperature yesterday: 66 °F (at 3:20 AM)
Average temperature yesterday: 72 °F

Past Weeks' High & Low Weather Summary

 TemperatureHumidityPressure
High90 °F (Jul 19, 3:20 PM)100% (Jul 16, 3:20 AM)30.21 "Hg (Jul 16, 3:20 AM)
Low52 °F (Jul 17, 2:20 AM)33% (Jul 19, 5:20 PM)29.80 "Hg (Jul 20, 1:20 PM)
Average71 °F72%30.00 "Hg
* Reported Jul 15 8:20 PM — Jul 30 8:20 PM, Bremerhaven, Weather by CustomWeather, © 2014

Note: Actual official high and low records may vary slightly from our data, if they occured in-between our weather recording intervals... More about our weather records

Advertising

Bremerhaven weather history for previous 24 hours

 ConditionsComfort  
Time TempWeatherWind HumidityBarometerVisibility
8:20 PM
Jul 30
68 °FScattered clouds.14 mph69%29.89 "HgN/A
7:20 PM68 °FScattered clouds.16 mph64%29.89 "HgN/A
6:20 PM70 °FScattered clouds.16 mph60%29.86 "HgN/A
5:20 PM72 °FScattered clouds.17 mph65%29.86 "HgN/A
4:20 PM72 °FPassing clouds.17 mph65%29.86 "HgN/A
3:20 PM72 °FPassing clouds.16 mph61%29.86 "HgN/A
2:20 PM72 °FScattered clouds.17 mph61%29.86 "HgN/A
1:20 PM70 °FScattered clouds.13 mph69%29.86 "HgN/A
12:20 PM70 °FScattered clouds.13 mph69%29.86 "HgN/A
11:20 AM72 °FScattered clouds.13 mph61%29.83 "HgN/A
10:20 AM70 °FScattered clouds.14 mph64%29.83 "HgN/A
9:20 AM68 °FPartly sunny.13 mph73%29.83 "HgN/A
8:20 AM68 °FBroken clouds.13 mph78%29.80 "HgN/A
7:20 AM66 °FBroken clouds.8 mph83%29.80 "HgN/A
6:20 AM66 °FPassing clouds.8 mph83%29.80 "HgN/A
5:20 AM66 °FPartly cloudy.9 mph83%29.80 "HgN/A
4:20 AM66 °FPartly cloudy.8 mph83%29.80 "HgN/A
3:20 AM68 °FPartly cloudy.10 mph78%29.80 "HgN/A
2:20 AM68 °FPartly cloudy.9 mph83%29.80 "HgN/A
1:20 AM68 °FPartly cloudy.8 mph83%29.80 "HgN/A
12:20 AM68 °FPartly cloudy.8 mph73%29.83 "HgN/A
11:20 PM
Jul 29
70 °FPartly cloudy.9 mph69%29.83 "HgN/A
10:20 PM70 °FPartly sunny.10 mph78%29.83 "HgN/A
9:20 PM70 °FPartly sunny.12 mph78%29.80 "HgN/A
Weather by CustomWeather, © 2014

See weather overviewHow to use our weather pages